Location: Newark
(36.9167°N, 76.2000°W)
Time: 08:43:12
(UTC+00:00)

N. Korean satellite - Visible Passes

Search period start: 01 October 2020 00:00
Search period end: 11 October 2020 00:00
Orbit: 454 x 503 km, 97.2° (Epoch: 30 September)

Date Brightness Start Highest point End Pass type
(mag) Time Alt. Az. Time Alt. Az. Time Alt. Az.
02 Oct 8.4 10:10:34 10° NNE 10:13:52 35° E 10:17:06 10° SSE visible
03 Oct 9.8 09:45:25 10° NE 09:47:41 16° E 09:49:56 10° SE visible
05 Oct 7.2 10:25:33 10° NNE 10:29:03 60° E 10:32:29 10° S visible
06 Oct 9.1 09:59:57 10° NE 10:02:55 25° E 10:05:50 10° SSE visible
07 Oct 10.1 09:35:28 10° ENE 09:36:41 11° E 09:37:54 10° ESE visible
08 Oct 6.4 10:40:38 10° N 10:44:10 79° WNW 10:47:37 10° SSW visible
09 Oct 8.0 10:14:44 10° NNE 10:18:04 41° E 10:21:21 10° S visible
10 Oct 9.6 09:49:25 10° NE 09:51:53 18° E 09:54:19 10° SE visible
